{"data":{"norad_id":63873,"intl_designator":"2025-094K","name":"STARLINK-33987","alt_names":[],"object_type":"PAYLOAD","status":"ACTIVE","operator":null,"country":"US","launch_date":"2025-05-10","launch_site_code":"AFWTR","launch_vehicle":null,"mission":null,"orbit_class":"UNKNOWN","rcs_meters":null,"size_class":null,"mass_kg":null,"dimensions":null,"purposes":["comms"],"wikipedia_slug":null,"has_3d_model":false,"image_url":null,"decayed_at":null,"tle_current":{"epoch":"2026-05-25T02:58:52.526784Z","epoch_age_seconds":67625,"freshness":"FRESH","line1":"1 63873U 25094K   26145.12421906  .00003635  00000+0  31220-3 0  9997","line2":"2 63873  70.0020  41.6903 0002870 268.7631  91.3199 14.98338716 58657","mean_motion":14.98338716,"eccentricity":0.000287,"inclination_deg":70.002,"raan_deg":41.6903,"arg_perigee_deg":268.7631,"mean_anomaly_deg":91.3199,"bstar":0.0003122,"rev_number":5865,"period_min":96.10644006078,"perigee_km":570.03423993998,"apogee_km":574.02363518814,"semimajor_km":6950.1659375641,"source":"CELESTRAK","updated_at":"2026-05-25T13:38:20.171000Z"}}}